Language: 


Des rapports , des résumés tant et plus, au choix de chacun....


Données Historiques de Météogheer
Journalier Rapport pour Janvier 29, 2018 Unitée:  Métrique    Impériale   Les deux
Suivant Jour »
Journalier Hebdomadaire Mensuel Annuel Sur mesure
  Max: Min: Moyenne:
Température: 11.7 °C 4.4 °C 10.3 °C
Point de rosée: 11.0 °C 4.0 °C 9.1 °C
Humidité: 98% 80% 91%
Vent: 43.1km/h 0.0km/h 20.2km/h
Rafales: 51.8km/h - -
Vent- - WSW
Pression: 1031.0 hPa 1023.9 hPa -
Pluie: 0.5 mm    
Historical Graphs
 
 
Données tabulaires pour Janvier 29, 2018
Heure Température Point de rosée Pression Vent Vent Rafales Humidité Pluie Taux (Horaire) Conditions
00:02 11.0 °C 11.0 °C 1031.0 hPa WSW 23.8 km/h 27.0 km/h 96% 0.0 mm
00:07 11.1 °C 11.0 °C 1031.0 hPa West 16.3 km/h 27.7 km/h 96% 0.0 mm
00:12 11.1 °C 10.0 °C 1031.0 hPa WSW 21.9 km/h 27.7 km/h 95% 0.0 mm
00:17 11.1 °C 10.0 °C 1031.0 hPa WSW 16.9 km/h 31.7 km/h 95% 0.0 mm
00:22 11.2 °C 10.0 °C 1031.0 hPa WSW 18.3 km/h 31.7 km/h 94% 0.0 mm
00:27 11.2 °C 10.0 °C 1031.0 hPa West 21.6 km/h 30.9 km/h 94% 0.0 mm
00:32 11.2 °C 10.0 °C 1030.0 hPa WSW 21.2 km/h 28.5 km/h 94% 0.0 mm
00:37 11.2 °C 10.0 °C 1030.0 hPa WSW 24.8 km/h 28.5 km/h 93% 0.0 mm
00:42 11.2 °C 10.0 °C 1030.0 hPa West 25.6 km/h 31.7 km/h 93% 0.0 mm
00:47 11.2 °C 10.0 °C 1030.0 hPa WSW 15.8 km/h 31.7 km/h 93% 0.0 mm
00:52 11.2 °C 10.0 °C 1030.0 hPa WSW 26.2 km/h 28.5 km/h 93% 0.0 mm
00:57 11.2 °C 10.0 °C 1030.0 hPa WSW 22.7 km/h 31.4 km/h 93% 0.0 mm
01:03 11.2 °C 10.0 °C 1030.0 hPa West 20.6 km/h 31.4 km/h 93% 0.0 mm
01:08 11.3 °C 10.0 °C 1030.0 hPa WSW 27.0 km/h 33.5 km/h 93% 0.0 mm
01:13 11.3 °C 10.0 °C 1030.0 hPa WSW 21.2 km/h 33.5 km/h 93% 0.0 mm
01:18 11.2 °C 10.0 °C 1030.0 hPa WSW 20.1 km/h 28.0 km/h 93% 0.0 mm
01:23 11.2 °C 10.0 °C 1030.0 hPa West 30.9 km/h 30.9 km/h 93% 0.0 mm
01:28 11.1 °C 10.0 °C 1030.0 hPa WSW 31.4 km/h 31.4 km/h 93% 0.0 mm
01:33 11.1 °C 10.0 °C 1030.0 hPa SW 16.3 km/h 31.4 km/h 93% 0.0 mm
01:38 11.1 °C 10.0 °C 1030.0 hPa WSW 24.5 km/h 31.4 km/h 93% 0.0 mm
01:43 11.0 °C 10.0 °C 1030.0 hPa WSW 28.5 km/h 28.5 km/h 93% 0.0 mm
01:48 11.0 °C 10.0 °C 1030.0 hPa West 22.7 km/h 30.9 km/h 93% 0.0 mm
01:53 11.0 °C 10.0 °C 1030.0 hPa WSW 16.9 km/h 30.9 km/h 92% 0.0 mm
01:58 11.0 °C 10.0 °C 1030.0 hPa WSW 21.2 km/h 24.8 km/h 92% 0.0 mm
02:03 10.9 °C 10.0 °C 1030.0 hPa WSW 15.8 km/h 27.4 km/h 93% 0.0 mm
02:08 10.9 °C 10.0 °C 1030.0 hPa WSW 16.9 km/h 27.4 km/h 93% 0.0 mm
02:13 10.9 °C 10.0 °C 1030.0 hPa WSW 23.8 km/h 31.7 km/h 92% 0.0 mm
02:18 10.9 °C 10.0 °C 1030.0 hPa WSW 20.1 km/h 31.7 km/h 92% 0.0 mm
02:23 10.9 °C 10.0 °C 1030.0 hPa WSW 23.3 km/h 28.5 km/h 92% 0.0 mm
02:29 10.9 °C 10.0 °C 1030.0 hPa WSW 22.4 km/h 35.6 km/h 92% 0.0 mm
02:34 10.8 °C 9.0 °C 1030.0 hPa WSW 20.1 km/h 35.6 km/h 92% 0.0 mm
02:39 10.8 °C 9.0 °C 1030.0 hPa WSW 20.9 km/h 32.0 km/h 92% 0.0 mm
02:44 10.8 °C 10.0 °C 1029.0 hPa West 24.5 km/h 36.0 km/h 93% 0.0 mm
02:49 10.8 °C 10.0 °C 1029.0 hPa WSW 27.0 km/h 36.0 km/h 93% 0.0 mm
02:54 10.8 °C 10.0 °C 1029.0 hPa West 20.6 km/h 28.5 km/h 93% 0.0 mm
02:59 10.8 °C 10.0 °C 1029.0 hPa West 23.8 km/h 28.5 km/h 93% 0.0 mm
03:04 10.8 °C 10.0 °C 1029.0 hPa WSW 12.2 km/h 26.2 km/h 93% 0.0 mm
03:09 10.8 °C 10.0 °C 1029.0 hPa West 25.9 km/h 28.0 km/h 93% 0.0 mm
03:14 10.8 °C 10.0 °C 1029.0 hPa WSW 20.6 km/h 28.5 km/h 93% 0.0 mm
03:19 10.8 °C 10.0 °C 1029.0 hPa West 24.8 km/h 31.4 km/h 94% 0.0 mm
03:24 10.8 °C 10.0 °C 1029.0 hPa WSW 23.8 km/h 31.4 km/h 94% 0.0 mm
03:29 10.8 °C 10.0 °C 1029.0 hPa West 13.0 km/h 29.1 km/h 93% 0.0 mm
03:34 10.8 °C 10.0 °C 1029.0 hPa WSW 27.7 km/h 38.5 km/h 93% 0.0 mm
03:39 10.9 °C 10.0 °C 1029.0 hPa WSW 31.7 km/h 38.5 km/h 93% 0.0 mm
03:44 10.9 °C 10.0 °C 1029.0 hPa West 24.8 km/h 36.4 km/h 93% 0.0 mm
03:49 10.9 °C 10.0 °C 1029.0 hPa WSW 29.1 km/h 37.5 km/h 92% 0.0 mm
03:54 10.9 °C 10.0 °C 1029.0 hPa WSW 23.3 km/h 37.5 km/h 92% 0.0 mm
03:59 10.9 °C 10.0 °C 1029.0 hPa WSW 28.5 km/h 37.5 km/h 91% 0.0 mm
04:04 11.0 °C 10.0 °C 1029.0 hPa West 20.1 km/h 31.7 km/h 91% 0.0 mm
04:09 11.0 °C 9.0 °C 1029.0 hPa WSW 25.3 km/h 36.0 km/h 90% 0.0 mm
04:14 11.0 °C 9.0 °C 1029.0 hPa West 17.2 km/h 36.0 km/h 90% 0.0 mm
04:19 11.0 °C 9.0 °C 1029.0 hPa WSW 25.9 km/h 30.9 km/h 90% 0.0 mm
04:24 11.0 °C 9.0 °C 1029.0 hPa WSW 16.9 km/h 34.6 km/h 90% 0.0 mm
04:29 10.9 °C 10.0 °C 1029.0 hPa WSW 16.9 km/h 34.6 km/h 91% 0.0 mm
04:34 10.9 °C 10.0 °C 1029.0 hPa West 17.7 km/h 30.6 km/h 92% 0.0 mm
04:39 10.9 °C 10.0 °C 1029.0 hPa WSW 29.1 km/h 32.0 km/h 92% 0.0 mm
04:44 10.9 °C 10.0 °C 1029.0 hPa WSW 20.6 km/h 40.7 km/h 92% 0.0 mm
04:49 10.9 °C 10.0 °C 1029.0 hPa West 38.1 km/h 40.7 km/h 92% 0.0 mm
04:54 10.9 °C 10.0 °C 1029.0 hPa West 31.7 km/h 38.1 km/h 92% 0.0 mm
04:59 10.9 °C 10.0 °C 1029.0 hPa WSW 25.3 km/h 38.5 km/h 92% 0.0 mm
05:05 10.9 °C 10.0 °C 1029.0 hPa WSW 27.4 km/h 40.7 km/h 91% 0.0 mm
05:10 10.9 °C 10.0 °C 1029.0 hPa WSW 27.7 km/h 40.7 km/h 91% 0.0 mm
05:15 11.0 °C 9.0 °C 1028.0 hPa West 16.9 km/h 43.9 km/h 89% 0.0 mm
05:20 11.0 °C 9.0 °C 1028.0 hPa West 39.6 km/h 43.9 km/h 89% 0.0 mm
05:25 11.0 °C 9.0 °C 1028.0 hPa West 32.8 km/h 41.0 km/h 89% 0.0 mm
05:30 11.0 °C 9.0 °C 1028.0 hPa WSW 27.0 km/h 40.4 km/h 88% 0.0 mm
05:35 11.0 °C 9.0 °C 1028.0 hPa WSW 31.7 km/h 38.9 km/h 89% 0.0 mm
05:40 10.9 °C 9.0 °C 1028.0 hPa WSW 21.9 km/h 36.0 km/h 90% 0.0 mm
05:45 10.9 °C 10.0 °C 1028.0 hPa WSW 26.7 km/h 34.3 km/h 91% 0.0 mm
05:50 10.9 °C 10.0 °C 1028.0 hPa WSW 20.1 km/h 34.3 km/h 91% 0.0 mm
05:55 10.8 °C 9.0 °C 1028.0 hPa WSW 28.0 km/h 29.1 km/h 92% 0.0 mm
06:00 10.7 °C 10.0 °C 1028.0 hPa WSW 24.8 km/h 31.4 km/h 93% 0.0 mm
06:05 10.7 °C 10.0 °C 1028.0 hPa WSW 17.7 km/h 32.0 km/h 94% 0.0 mm
06:10 10.6 °C 10.0 °C 1028.0 hPa West 21.6 km/h 32.0 km/h 94% 0.0 mm
06:15 10.6 °C 10.0 °C 1028.0 hPa WSW 15.4 km/h 27.7 km/h 95% 0.0 mm
06:20 10.6 °C 10.0 °C 1028.0 hPa WSW 19.8 km/h 27.7 km/h 95% 0.0 mm
06:25 10.6 °C 10.0 °C 1028.0 hPa West 17.7 km/h 28.8 km/h 94% 0.0 mm
06:30 10.7 °C 10.0 °C 1028.0 hPa West 19.5 km/h 28.8 km/h 94% 0.0 mm
06:35 10.7 °C 10.0 °C 1028.0 hPa WSW 18.0 km/h 28.0 km/h 93% 0.0 mm
06:40 10.7 °C 10.0 °C 1028.0 hPa WSW 23.3 km/h 31.7 km/h 93% 0.0 mm
06:45 10.7 °C 10.0 °C 1029.0 hPa WSW 12.2 km/h 31.7 km/h 94% 0.0 mm
06:50 10.6 °C 10.0 °C 1029.0 hPa West 28.8 km/h 28.8 km/h 94% 0.0 mm
06:55 10.6 °C 10.0 °C 1029.0 hPa WSW 21.6 km/h 35.2 km/h 95% 0.0 mm
07:00 10.5 °C 10.0 °C 1029.0 hPa WSW 20.9 km/h 35.2 km/h 95% 0.0 mm
07:06 10.5 °C 10.0 °C 1029.0 hPa West 26.2 km/h 28.0 km/h 94% 0.0 mm
07:11 10.6 °C 10.0 °C 1029.0 hPa WSW 27.7 km/h 28.0 km/h 94% 0.0 mm
07:16 10.6 °C 10.0 °C 1028.0 hPa WSW 15.4 km/h 30.9 km/h 94% 0.0 mm
07:21 10.5 °C 10.0 °C 1028.0 hPa WSW 19.5 km/h 30.9 km/h 94% 0.0 mm
07:26 10.5 °C 10.0 °C 1028.0 hPa West 36.4 km/h 51.8 km/h 93% 0.0 mm
07:31 10.6 °C 9.0 °C 1029.0 hPa WSW 20.6 km/h 51.8 km/h 89% 0.0 mm
07:36 10.6 °C 9.0 °C 1029.0 hPa West 27.4 km/h 43.9 km/h 89% 0.0 mm
07:41 10.6 °C 9.0 °C 1029.0 hPa West 20.1 km/h 33.8 km/h 89% 0.0 mm
07:46 10.6 °C 9.0 °C 1029.0 hPa WSW 15.4 km/h 35.2 km/h 89% 0.0 mm
07:51 10.6 °C 9.0 °C 1029.0 hPa WSW 35.6 km/h 42.5 km/h 89% 0.0 mm
07:56 10.7 °C 9.0 °C 1029.0 hPa SW 22.4 km/h 42.5 km/h 87% 0.0 mm
08:01 10.7 °C 9.0 °C 1027.0 hPa WSW 28.0 km/h 41.7 km/h 86% 0.0 mm
08:06 10.7 °C 9.0 °C 1027.0 hPa SW 35.2 km/h 41.4 km/h 86% 0.0 mm
08:11 10.7 °C 9.0 °C 1027.0 hPa West 24.5 km/h 41.4 km/h 87% 0.0 mm
08:16 10.7 °C 9.0 °C 1027.0 hPa WSW 25.3 km/h 37.8 km/h 86% 0.0 mm
08:21 10.7 °C 9.0 °C 1027.0 hPa SSW 24.8 km/h 37.5 km/h 87% 0.0 mm
08:26 10.7 °C 9.0 °C 1027.0 hPa WSW 24.8 km/h 37.5 km/h 86% 0.0 mm
08:31 10.7 °C 9.0 °C 1027.0 hPa WSW 20.1 km/h 36.4 km/h 86% 0.0 mm
08:36 10.7 °C 9.0 °C 1027.0 hPa WSW 9.7 km/h 39.3 km/h 85% 0.0 mm
08:41 10.7 °C 9.0 °C 1027.0 hPa WSW 25.9 km/h 39.3 km/h 85% 0.0 mm
08:46 10.6 °C 9.0 °C 1028.0 hPa West 24.8 km/h 35.6 km/h 85% 0.0 mm
08:51 10.7 °C 9.0 °C 1028.0 hPa WSW 26.7 km/h 34.6 km/h 85% 0.0 mm
08:56 10.7 °C 9.0 °C 1028.0 hPa West 19.5 km/h 38.1 km/h 85% 0.0 mm
09:01 10.7 °C 9.0 °C 1028.0 hPa West 27.4 km/h 38.9 km/h 85% 0.0 mm
09:06 10.6 °C 9.0 °C 1028.0 hPa WSW 21.9 km/h 38.9 km/h 85% 0.0 mm
09:11 10.6 °C 9.0 °C 1028.0 hPa WSW 15.8 km/h 31.4 km/h 85% 0.0 mm
09:16 10.6 °C 9.0 °C 1028.0 hPa West 32.0 km/h 32.0 km/h 85% 0.0 mm
09:21 10.7 °C 9.0 °C 1028.0 hPa West 28.5 km/h 32.0 km/h 85% 0.0 mm
09:26 10.7 °C 9.0 °C 1028.0 hPa WSW 17.2 km/h 34.3 km/h 85% 0.0 mm
09:31 10.7 °C 9.0 °C 1027.0 hPa West 29.9 km/h 34.3 km/h 85% 0.0 mm
09:36 10.7 °C 9.0 °C 1027.0 hPa West 23.8 km/h 42.2 km/h 85% 0.0 mm
09:42 10.7 °C 9.0 °C 1027.0 hPa West 19.5 km/h 42.2 km/h 85% 0.0 mm
09:47 10.8 °C 9.0 °C 1027.0 hPa West 25.9 km/h 40.4 km/h 85% 0.0 mm
09:52 10.8 °C 9.0 °C 1027.0 hPa West 16.3 km/h 37.8 km/h 85% 0.0 mm
09:57 10.8 °C 9.0 °C 1027.0 hPa WSW 24.8 km/h 34.6 km/h 85% 0.0 mm
10:02 10.8 °C 9.0 °C 1027.0 hPa WSW 17.7 km/h 34.3 km/h 85% 0.0 mm
10:07 10.8 °C 9.0 °C 1027.0 hPa WSW 29.9 km/h 34.3 km/h 85% 0.0 mm
10:12 10.8 °C 9.0 °C 1027.0 hPa West 25.3 km/h 35.6 km/h 85% 0.0 mm
10:17 10.8 °C 9.0 °C 1027.0 hPa WSW 16.3 km/h 35.6 km/h 85% 0.0 mm
10:22 10.8 °C 9.0 °C 1027.0 hPa WSW 20.6 km/h 29.1 km/h 85% 0.0 mm
10:28 10.8 °C 9.0 °C 1027.0 hPa West 25.6 km/h 32.3 km/h 85% 0.0 mm
10:33 10.9 °C 9.0 °C 1027.0 hPa WSW 19.8 km/h 39.6 km/h 85% 0.0 mm
10:38 10.9 °C 9.0 °C 1027.0 hPa WSW 29.9 km/h 39.6 km/h 85% 0.0 mm
10:43 10.9 °C 9.0 °C 1027.0 hPa WSW 20.1 km/h 36.4 km/h 85% 0.0 mm
10:48 10.9 °C 9.0 °C 1027.0 hPa WSW 42.5 km/h 42.5 km/h 85% 0.0 mm
10:53 11.0 °C 9.0 °C 1027.0 hPa WSW 32.0 km/h 42.5 km/h 84% 0.0 mm
10:58 11.0 °C 9.0 °C 1027.0 hPa WSW 41.4 km/h 42.5 km/h 84% 0.0 mm
11:03 11.0 °C 9.0 °C 1027.0 hPa West 39.6 km/h 41.4 km/h 84% 0.0 mm
11:08 11.0 °C 8.0 °C 1027.0 hPa WSW 27.0 km/h 41.4 km/h 83% 0.0 mm
11:13 10.9 °C 9.0 °C 1027.0 hPa SSW 19.5 km/h 38.1 km/h 84% 0.0 mm
11:18 10.9 °C 9.0 °C 1027.0 hPa West 37.8 km/h 39.6 km/h 84% 0.0 mm
11:23 10.9 °C 9.0 °C 1027.0 hPa WSW 27.7 km/h 39.6 km/h 84% 0.0 mm
11:28 11.0 °C 9.0 °C 1027.0 hPa West 35.6 km/h 37.8 km/h 84% 0.0 mm
11:33 11.0 °C 9.0 °C 1027.0 hPa West 26.7 km/h 44.2 km/h 84% 0.0 mm
11:38 11.0 °C 8.0 °C 1027.0 hPa WSW 28.0 km/h 44.2 km/h 83% 0.0 mm
11:43 11.1 °C 8.0 °C 1027.0 hPa West 16.6 km/h 42.2 km/h 81% 0.0 mm
11:48 11.1 °C 8.0 °C 1027.0 hPa WSW 37.5 km/h 42.2 km/h 81% 0.0 mm
11:53 11.1 °C 8.0 °C 1027.0 hPa West 24.8 km/h 42.5 km/h 80% 0.0 mm
11:58 11.1 °C 8.0 °C 1027.0 hPa WSW 36.4 km/h 42.5 km/h 81% 0.0 mm
12:03 11.0 °C 9.0 °C 1027.0 hPa WSW 30.9 km/h 41.7 km/h 84% 0.0 mm
12:08 10.8 °C 9.0 °C 1027.0 hPa West 25.6 km/h 41.7 km/h 86% 0.0 mm
12:13 10.7 °C 9.0 °C 1027.0 hPa SSW 19.8 km/h 38.1 km/h 88% 0.0 mm
12:18 10.7 °C 9.0 °C 1027.0 hPa West 28.5 km/h 38.1 km/h 89% 0.0 mm
12:23 10.8 °C 9.0 °C 1027.0 hPa West 25.3 km/h 32.0 km/h 89% 0.0 mm
12:28 10.8 °C 9.0 °C 1027.0 hPa WSW 23.3 km/h 36.4 km/h 89% 0.0 mm
12:33 10.8 °C 9.0 °C 1028.0 hPa West 27.0 km/h 36.7 km/h 89% 0.0 mm
12:38 10.6 °C 9.0 °C 1028.0 hPa West 20.9 km/h 36.7 km/h 90% 0.0 mm
12:43 10.5 °C 9.0 °C 1027.0 hPa WSW 32.0 km/h 36.4 km/h 91% 0.0 mm
12:48 10.4 °C 9.0 °C 1027.0 hPa West 27.4 km/h 36.4 km/h 92% 0.0 mm
12:53 10.4 °C 9.0 °C 1027.0 hPa West 25.6 km/h 37.5 km/h 93% 0.0 mm
12:59 10.4 °C 9.0 °C 1027.0 hPa WSW 23.8 km/h 37.5 km/h 93% 0.0 mm
13:04 10.6 °C 9.0 °C 1027.0 hPa WSW 25.3 km/h 36.0 km/h 92% 0.0 mm
13:09 10.6 °C 9.0 °C 1027.0 hPa WSW 27.4 km/h 33.8 km/h 92% 0.0 mm
13:14 10.7 °C 9.0 °C 1027.0 hPa WSW 37.8 km/h 40.4 km/h 91% 0.0 mm
13:19 10.7 °C 9.0 °C 1027.0 hPa WSW 25.6 km/h 40.4 km/h 89% 0.0 mm
13:24 10.8 °C 9.0 °C 1027.0 hPa West 28.0 km/h 34.3 km/h 88% 0.0 mm
13:29 10.9 °C 9.0 °C 1027.0 hPa West 20.6 km/h 39.6 km/h 86% 0.0 mm
13:34 11.0 °C 9.0 °C 1027.0 hPa WSW 20.9 km/h 39.6 km/h 85% 0.0 mm
13:39 11.1 °C 9.0 °C 1027.0 hPa West 28.0 km/h 37.8 km/h 85% 0.0 mm
13:44 11.1 °C 9.0 °C 1027.0 hPa WSW 23.3 km/h 36.7 km/h 84% 0.0 mm
13:49 11.2 °C 9.0 °C 1026.0 hPa WSW 36.7 km/h 36.7 km/h 84% 0.0 mm
13:54 11.2 °C 9.0 °C 1026.0 hPa WSW 19.8 km/h 36.7 km/h 83% 0.0 mm
13:59 11.3 °C 9.0 °C 1026.0 hPa West 21.6 km/h 32.0 km/h 83% 0.0 mm
14:04 11.3 °C 9.0 °C 1026.0 hPa WSW 25.9 km/h 32.0 km/h 83% 0.0 mm
14:09 11.4 °C 9.0 °C 1026.0 hPa WSW 20.6 km/h 37.8 km/h 82% 0.0 mm
14:14 11.5 °C 9.0 °C 1024.9 hPa West 21.2 km/h 37.8 km/h 83% 0.0 mm
14:19 11.5 °C 9.0 °C 1024.9 hPa WSW 26.7 km/h 36.4 km/h 83% 0.0 mm
14:25 11.5 °C 9.0 °C 1024.9 hPa WSW 42.8 km/h 42.8 km/h 83% 0.0 mm
14:30 11.4 °C 9.0 °C 1024.9 hPa WSW 36.0 km/h 42.8 km/h 83% 0.0 mm
14:35 11.5 °C 9.0 °C 1024.9 hPa WSW 37.5 km/h 41.7 km/h 83% 0.0 mm
14:40 11.5 °C 9.0 °C 1024.9 hPa WSW 31.7 km/h 40.7 km/h 84% 0.0 mm
14:45 11.5 °C 9.0 °C 1024.9 hPa WSW 26.7 km/h 36.4 km/h 84% 0.0 mm
14:50 11.6 °C 9.0 °C 1024.9 hPa West 31.7 km/h 36.4 km/h 84% 0.0 mm
14:55 11.7 °C 9.0 °C 1024.9 hPa WSW 20.9 km/h 42.5 km/h 84% 0.0 mm
15:00 11.7 °C 9.0 °C 1023.9 hPa WSW 23.3 km/h 42.5 km/h 84% 0.0 mm
15:05 11.7 °C 9.0 °C 1023.9 hPa WSW 36.4 km/h 41.7 km/h 84% 0.0 mm
15:10 11.6 °C 9.0 °C 1023.9 hPa WSW 32.0 km/h 48.3 km/h 84% 0.0 mm
15:15 11.5 °C 9.0 °C 1024.9 hPa West 29.9 km/h 48.3 km/h 84% 0.0 mm
15:20 11.5 °C 9.0 °C 1024.9 hPa WSW 42.2 km/h 42.2 km/h 84% 0.0 mm
15:25 11.5 °C 9.0 °C 1024.9 hPa WSW 36.7 km/h 42.2 km/h 85% 0.0 mm
15:30 11.5 °C 9.0 °C 1024.9 hPa WSW 32.3 km/h 38.9 km/h 85% 0.0 mm
15:35 11.6 °C 9.0 °C 1024.9 hPa WSW 20.6 km/h 46.8 km/h 84% 0.0 mm
15:40 11.6 °C 9.0 °C 1024.9 hPa WSW 19.8 km/h 47.1 km/h 84% 0.0 mm
15:45 11.6 °C 9.0 °C 1024.9 hPa WSW 28.5 km/h 47.1 km/h 84% 0.0 mm
15:50 11.5 °C 9.0 °C 1024.9 hPa West 36.0 km/h 43.1 km/h 85% 0.0 mm
15:55 11.5 °C 9.0 °C 1024.9 hPa West 27.7 km/h 43.1 km/h 85% 0.0 mm
16:00 11.4 °C 9.0 °C 1023.9 hPa West 37.0 km/h 48.3 km/h 85% 0.0 mm
16:05 11.4 °C 9.0 °C 1023.9 hPa WSW 35.6 km/h 48.3 km/h 85% 0.0 mm
16:10 11.4 °C 9.0 °C 1023.9 hPa West 42.8 km/h 43.1 km/h 85% 0.0 mm
16:15 11.4 °C 9.0 °C 1024.9 hPa West 41.0 km/h 44.2 km/h 85% 0.0 mm
16:20 11.3 °C 9.0 °C 1024.9 hPa West 24.8 km/h 44.2 km/h 86% 0.0 mm
16:25 11.3 °C 9.0 °C 1024.9 hPa West 28.0 km/h 42.2 km/h 86% 0.0 mm
16:30 11.2 °C 9.0 °C 1023.9 hPa WSW 23.8 km/h 37.8 km/h 87% 0.0 mm
16:35 11.2 °C 9.0 °C 1023.9 hPa WSW 22.4 km/h 41.0 km/h 88% 0.0 mm
16:40 11.1 °C 9.0 °C 1023.9 hPa West 25.3 km/h 41.0 km/h 88% 0.0 mm
16:45 11.1 °C 9.0 °C 1024.9 hPa WSW 17.7 km/h 37.8 km/h 89% 0.0 mm
16:50 10.9 °C 10.0 °C 1024.9 hPa WSW 32.0 km/h 37.8 km/h 91% 0.0 mm
16:55 10.9 °C 10.0 °C 1024.9 hPa West 17.7 km/h 36.7 km/h 92% 0.0 mm
17:00 10.8 °C 10.0 °C 1024.9 hPa West 25.3 km/h 36.7 km/h 93% 0.0 mm
17:05 10.7 °C 10.0 °C 1024.9 hPa WSW 43.1 km/h 43.1 km/h 94% 0.0 mm
17:10 10.7 °C 10.0 °C 1024.9 hPa West 24.5 km/h 43.1 km/h 94% 0.0 mm
17:16 10.7 °C 10.0 °C 1024.9 hPa West 23.8 km/h 43.1 km/h 95% 0.0 mm
17:21 10.7 °C 10.0 °C 1024.9 hPa WSW 24.8 km/h 38.5 km/h 95% 0.0 mm
17:26 10.7 °C 10.0 °C 1024.9 hPa West 17.7 km/h 36.4 km/h 95% 0.0 mm
17:31 10.8 °C 10.0 °C 1024.9 hPa West 23.3 km/h 36.4 km/h 94% 0.0 mm
17:36 10.8 °C 10.0 °C 1024.9 hPa WSW 35.2 km/h 35.2 km/h 94% 0.0 mm
17:41 10.9 °C 10.0 °C 1024.9 hPa WSW 16.6 km/h 38.1 km/h 94% 0.0 mm
17:46 10.9 °C 10.0 °C 1024.9 hPa West 17.7 km/h 38.1 km/h 94% 0.0 mm
17:51 10.9 °C 10.0 °C 1024.9 hPa WNW 25.3 km/h 36.7 km/h 94% 0.0 mm
17:56 10.9 °C 10.0 °C 1024.9 hPa WSW 32.0 km/h 38.9 km/h 94% 0.0 mm
18:01 11.0 °C 10.0 °C 1026.0 hPa WSW 20.6 km/h 38.9 km/h 93% 0.0 mm
18:06 10.9 °C 10.0 °C 1026.0 hPa West 12.6 km/h 38.9 km/h 94% 0.0 mm
18:11 10.9 °C 10.0 °C 1026.0 hPa West 23.8 km/h 31.7 km/h 94% 0.0 mm
18:16 10.9 °C 10.0 °C 1026.0 hPa WSW 17.7 km/h 31.7 km/h 94% 0.0 mm
18:21 10.9 °C 10.0 °C 1026.0 hPa West 17.2 km/h 30.9 km/h 94% 0.0 mm
18:26 10.9 °C 10.0 °C 1026.0 hPa WSW 26.7 km/h 31.4 km/h 95% 0.0 mm
18:31 10.9 °C 10.0 °C 1026.0 hPa West 20.6 km/h 31.4 km/h 95% 0.0 mm
18:36 10.9 °C 10.0 °C 1026.0 hPa West 12.2 km/h 31.4 km/h 95% 0.0 mm
18:41 10.9 °C 10.0 °C 1026.0 hPa West 25.6 km/h 31.4 km/h 95% 0.0 mm
18:46 10.9 °C 10.0 °C 1026.0 hPa West 20.9 km/h 29.1 km/h 95% 0.0 mm
18:51 10.9 °C 11.0 °C 1026.0 hPa West 16.6 km/h 29.1 km/h 96% 0.0 mm
18:56 10.9 °C 11.0 °C 1026.0 hPa West 20.6 km/h 28.0 km/h 96% 0.0 mm
19:01 10.9 °C 11.0 °C 1026.0 hPa West 9.7 km/h 28.0 km/h 96% 0.0 mm
19:06 10.9 °C 11.0 °C 1026.0 hPa North 14.0 km/h 27.7 km/h 96% 0.0 mm
19:11 10.9 °C 11.0 °C 1026.0 hPa North 9.3 km/h 14.0 km/h 97% 0.0 mm
19:16 10.5 °C 10.0 °C 1027.0 hPa NW 4.3 km/h 21.2 km/h 94% 0.3 mm
19:21 10.2 °C 9.0 °C 1027.0 hPa NNW 5.0 km/h 21.2 km/h 93% 0.5 mm
19:26 10.0 °C 9.0 °C 1027.0 hPa NE 6.1 km/h 14.0 km/h 92% 0.5 mm
19:31 9.9 °C 9.0 °C 1027.0 hPa NNE 4.7 km/h 14.0 km/h 93% 0.5 mm
19:36 9.8 °C 9.0 °C 1027.0 hPa NW 4.0 km/h 11.9 km/h 93% 0.5 mm
19:41 9.7 °C 9.0 °C 1027.0 hPa NW 6.1 km/h 11.9 km/h 94% 0.5 mm
19:46 9.7 °C 9.0 °C 1027.0 hPa West 4.0 km/h 11.6 km/h 94% 0.5 mm
19:51 9.7 °C 9.0 °C 1027.0 hPa WNW 3.5 km/h 15.4 km/h 94% 0.5 mm
19:56 9.6 °C 9.0 °C 1027.0 hPa NNW 11.9 km/h 15.4 km/h 95% 0.5 mm
20:01 9.6 °C 9.0 °C 1027.0 hPa NW 10.1 km/h 12.6 km/h 95% 0.5 mm
20:06 9.5 °C 9.0 °C 1027.0 hPa West 7.9 km/h 11.9 km/h 95% 0.5 mm
20:11 9.5 °C 9.0 °C 1027.0 hPa West 3.2 km/h 10.1 km/h 95% 0.3 mm
20:16 9.4 °C 9.0 °C 1028.0 hPa WNW 5.5 km/h 6.4 km/h 95% 0.3 mm
20:21 9.4 °C 9.0 °C 1028.0 hPa WNW 6.4 km/h 10.5 km/h 95% 0.0 mm
20:26 9.3 °C 9.0 °C 1028.0 hPa WNW 1.8 km/h 10.5 km/h 95% 0.0 mm
20:32 9.3 °C 9.0 °C 1028.0 hPa Calm   12.2 km/h 95% 0.0 mm
20:37 9.3 °C 9.0 °C 1028.0 hPa Calm   12.2 km/h 95% 0.0 mm
20:42 9.2 °C 9.0 °C 1028.0 hPa NNW 1.4 km/h 12.2 km/h 95% 0.0 mm
20:47 9.2 °C 9.0 °C 1028.0 hPa WNW 3.2 km/h 7.9 km/h 95% 0.0 mm
20:52 9.1 °C 9.0 °C 1028.0 hPa Calm   7.9 km/h 95% 0.0 mm
20:57 9.1 °C 9.0 °C 1028.0 hPa Calm   6.9 km/h 95% 0.0 mm
21:02 9.0 °C 9.0 °C 1029.0 hPa Calm   7.6 km/h 95% 0.0 mm
21:07 8.9 °C 9.0 °C 1029.0 hPa Calm   7.6 km/h 95% 0.0 mm
21:12 8.7 °C 8.0 °C 1029.0 hPa Calm   6.9 km/h 95% 0.0 mm
21:17 8.6 °C 8.0 °C 1029.0 hPa Calm   5.5 km/h 95% 0.0 mm
21:22 8.5 °C 8.0 °C 1029.0 hPa WNW 6.1 km/h 6.1 km/h 95% 0.0 mm
21:27 8.3 °C 8.0 °C 1029.0 hPa Calm   6.1 km/h 95% 0.0 mm
21:32 8.2 °C 8.0 °C 1029.0 hPa Calm   6.1 km/h 95% 0.0 mm
21:37 8.0 °C 8.0 °C 1029.0 hPa West 4.7 km/h 6.1 km/h 95% 0.0 mm
21:42 7.8 °C 7.0 °C 1029.0 hPa Calm   6.1 km/h 95% 0.0 mm
21:47 7.7 °C 7.0 °C 1029.0 hPa Calm   4.7 km/h 95% 0.0 mm
21:52 7.4 °C 7.0 °C 1029.0 hPa Calm     95% 0.0 mm
21:57 7.3 °C 7.0 °C 1029.0 hPa Calm   5.5 km/h 96% 0.0 mm
22:02 7.2 °C 7.0 °C 1029.0 hPa Calm   5.5 km/h 96% 0.0 mm
22:07 7.1 °C 7.0 °C 1029.0 hPa Calm     96% 0.0 mm
22:12 7.1 °C 7.0 °C 1029.0 hPa Calm   4.7 km/h 97% 0.0 mm
22:17 7.0 °C 7.0 °C 1029.0 hPa Calm   4.7 km/h 97% 0.0 mm
22:22 7.0 °C 7.0 °C 1029.0 hPa Calm   2.1 km/h 97% 0.0 mm
22:27 6.8 °C 6.0 °C 1029.0 hPa West 2.6 km/h 3.5 km/h 97% 0.0 mm
22:32 6.7 °C 6.0 °C 1029.0 hPa Calm   6.4 km/h 97% 0.0 mm
22:37 6.4 °C 6.0 °C 1029.0 hPa Calm   6.4 km/h 97% 0.0 mm
22:42 6.2 °C 6.0 °C 1029.0 hPa Calm     97% 0.0 mm
22:47 6.1 °C 6.0 °C 1029.0 hPa Calm     97% 0.0 mm
22:52 6.0 °C 6.0 °C 1029.0 hPa Calm   3.5 km/h 97% 0.0 mm
22:57 5.9 °C 6.0 °C 1029.0 hPa Calm   4.0 km/h 97% 0.0 mm
23:03 5.8 °C 6.0 °C 1029.0 hPa Calm   5.0 km/h 97% 0.0 mm
23:08 5.7 °C 6.0 °C 1029.0 hPa Calm   5.0 km/h 98% 0.0 mm
23:13 5.7 °C 6.0 °C 1029.0 hPa Calm     98% 0.0 mm
23:18 5.6 °C 6.0 °C 1030.0 hPa West 1.4 km/h 5.0 km/h 98% 0.0 mm
23:23 5.5 °C 6.0 °C 1030.0 hPa Calm   5.0 km/h 98% 0.0 mm
23:28 5.4 °C 6.0 °C 1030.0 hPa Calm   2.1 km/h 98% 0.0 mm
23:33 5.3 °C 6.0 °C 1029.0 hPa Calm     98% 0.0 mm
23:38 5.2 °C 5.0 °C 1029.0 hPa Calm     98% 0.0 mm
23:43 4.8 °C 5.0 °C 1029.0 hPa Calm   5.0 km/h 98% 0.0 mm
23:48 4.6 °C 4.0 °C 1029.0 hPa Calm   5.0 km/h 97% 0.0 mm
23:53 4.5 °C 4.0 °C 1029.0 hPa Calm     97% 0.0 mm
23:58 4.4 °C 4.0 °C 1029.0 hPa Calm     97% 0.0 mm
Données Historique de Météo Turbie

Mise a jour : 22/05/2018 03:52:12
Généré par Cumulus 1.9.4 (1099)